YMML

Melbourne Airport

Airport
ICAO code
YMML
IATA Code
MEL
Summary
ICAO Region
APAC
ICAO Territory
Location

Tullamarine, Victoria

Serving
Melbourne
Elevation
434 ft
Coordinates
37° 40' 11" S , 144° 50' 55" E
KCC
Airport BS
Bird Strike
Airport WX
Cumulonimbus
Metar
Observation
YMML 041500Z 21011KT CAVOK 19/12 Q1006
Station
Melbourne Airport
Date/Time
2022-12-04 15:00:00
Wind direction
210°
Wind speed
11 kts
Lowest cloud amount
clouds and visibility OK
Temperature
19°C
Dew point
12°C
Humidity
63%
QNH
1006 hPa
Weather condition
n/a

Description

Melbourne Airport, also known as Tullamarine Airport, is the primary airport serving the city of Melbourne and the second busiest in Australia.

Climatology

Mild temperate oceanic climate (Köppen climate classification Cfb). Melbourne is known for its changeable weather conditions caused by the city's location on the boundary of the very hot inland areas and the cold southern ocean. Cold fronts in the spring and summer months can be associated with severe weather.

SKYbrary Partners:

Safety knowledge contributed by: